N8ESC Weather Reports


time (UTC)temp
C
wind
direction
speed
KPH
gust
KPH
rain 1hr
cm
rain 24hr
cm
rain mn
cm
humidity
%
barometer
mb
20260906191158 23 176 6.4 9.7 0.00 0.00 0.00 66 1019.5
20260906190658 24 121 6.4 11.3 0.00 0.00 0.00 66 1019.6
20260906190153 24 74 4.8 11.3 0.00 0.00 0.00 70 1019.7
20260906185651 23 12 3.2 11.3 0.00 0.00 0.00 70 1019.6
20260906185151 23 70 1.6 9.7 0.00 0.00 0.00 68 1019.6
20260906184645 23 56 1.6 14.5 0.00 0.00 0.00 69 1019.8
20260906184142 23 158 4.8 11.3 0.00 0.00 0.00 69 1019.7
20260906183637 23 180 6.4 14.5 0.00 0.00 0.00 66 1019.6
20260906183133 23 100 4.8 12.9 0.00 0.00 0.00 68 1019.6
20260906182632 24 94 4.8 6.4 0.00 0.00 0.00 65 1019.7
20260906182129 24 87 1.6 6.4 0.00 0.00 0.00 64 1019.5
20260906181624 24 163 6.4 12.9 0.00 0.00 0.00 66 1019.5
20260906181120 24 171 3.2 9.7 0.00 0.00 0.00 65 1019.6
20260906180615 24 119 3.2 4.8 0.00 0.00 0.00 64 1019.6
20260906180114 25 45 1.6 4.8 0.00 0.00 0.00 65 1019.7
20260906175613 23 54 3.2 6.4 0.00 0.00 0.00 66 1019.6
20260906175108 24 181 6.4 11.3 0.00 0.00 0.00 63 1019.6
20260906174600 24 86 1.6 6.4 0.00 0.00 0.00 66 1019.5
20260906174055 23 77 1.6 3.2 0.00 0.00 0.00 68 1019.5
20260906173550 23 48 0.0 6.4 0.00 0.00 0.00 64 1019.6
20260906173041 24 159 6.4 9.7 0.00 0.00 0.00 61 1019.7
20260906172540 23 96 4.8 6.4 0.00 0.00 0.00 67 1019.6
20260906172036 24 173 8.0 9.7 0.00 0.00 0.00 68 1019.6
20260906171530 23 58 0.0 3.2 0.00 0.00 0.00 63 1019.7
20260906171026 23 103 1.6 4.8 0.00 0.00 0.00 66 1019.7
20260906170522 23 109 6.4 9.7 0.00 0.00 0.00 68 1019.7
20260906170021 23 51 0.0 6.4 0.00 0.00 0.00 73 1019.7
20260906165518 23 183 4.8 6.4 0.00 0.00 0.00 71 1019.8
20260906165013 23 100 3.2 6.4 0.00 0.00 0.00 71 1019.8
20260906164512 23 198 1.6 4.8 0.00 0.00 0.00 72 1019.9
20260906164008 23 53 0.0 1.6 0.00 0.00 0.00 70 1020.0
20260906163503 23 72 1.6 3.2 0.00 0.00 0.00 71 1019.9
20260906163002 23 172 4.8 9.7 0.00 0.00 0.00 73 1020.0
20260906162500 23 54 0.0 6.4 0.00 0.00 0.00 72 1019.9
20260906161955 23 174 3.2 6.4 0.00 0.00 0.00 72 1019.8
20260906161455 23 50 1.6 6.4 0.00 0.00 0.00 74 1020.1
20260906160955 25 74 0.0 3.2 0.00 0.00 0.00 71 1020.0
20260906160448 23 72 1.6 1.6 0.00 0.00 0.00 71 1020.1
20260906155946 23 63 0.0 4.8 0.00 0.00 0.00 72 1020.2
20260906155445 23 167 4.8 9.7 0.00 0.00 0.00 74 1020.0
20260906154941 23 74 3.2 4.8 0.00 0.00 0.00 72 1019.9
20260906154437 22 122 4.8 9.7 0.00 0.00 0.00 75 1020.1
20260906153935 22 68 1.6 9.7 0.00 0.00 0.00 76 1020.1
20260906153433 22 155 4.8 6.4 0.00 0.00 0.00 74 1020.1
20260906152929 22 349 0.0 1.6 0.00 0.00 0.00 75 1020.1
20260906152424 21 0 3.2 4.8 0.00 0.00 0.00 77 1020.1
20260906151923 21 353 1.6 3.2 0.00 0.00 0.00 75 1020.1
20260906151419 22 352 1.6 1.6 0.00 0.00 0.00 74 1020.2
20260906150914 21 350 0.0 0.0 0.00 0.00 0.00 73 1020.4
20260906150415 21 354 1.6 3.2 0.00 0.00 0.00 74 1020.0
20260906145914 20 355 3.2 4.8 0.00 0.00 0.00 77 1020.2
20260906145413 20 352 3.2 3.2 0.00 0.00 0.00 77 1020.4
20260906144908 20 353 1.6 3.2 0.00 0.00 0.00 76 1020.2
20260906144403 20 353 0.0 3.2 0.00 0.00 0.00 77 1020.1
20260906143858 20 351 3.2 4.8 0.00 0.00 0.00 76 1020.0
20260906143354 20 352 0.0 3.2 0.00 0.00 0.00 77 1020.0
20260906142850 20 356 3.2 4.8 0.00 0.00 0.00 78 1020.2
20260906142344 19 353 1.6 3.2 0.00 0.00 0.00 80 1020.2
20260906141844 18 353 3.2 4.8 0.00 0.00 0.00 80 1020.1
20260906141339 18 357 0.0 1.6 0.00 0.00 0.00 80 1020.2
20260906140838 18 353 1.6 4.8 0.00 0.00 0.00 80 1020.2
20260906140333 18 352 1.6 3.2 0.00 0.00 0.00 80 1020.1
20260906135830 18 352 1.6 4.8 0.00 0.00 0.00 80 1020.1
20260906135326 18 358 3.2 4.8 0.00 0.00 0.00 81 1020.0
20260906134821 18 357 3.2 4.8 0.00 0.00 0.00 81 1019.8
20260906134316 18 355 1.6 4.8 0.00 0.00 0.00 81 1020.2
20260906133812 17 355 3.2 4.8 0.00 0.00 0.00 82 1020.0
20260906133307 17 353 3.2 4.8 0.00 0.00 0.00 82 1020.1
20260906132803 16 353 3.2 4.8 0.00 0.00 0.00 83 1020.0
20260906132306 16 351 3.2 4.8 0.00 0.00 0.00 83 1020.0
20260906131758 16 348 1.6 1.6 0.00 0.00 0.00 83 1020.1
20260906131253 16 352 0.0 0.0 0.00 0.00 0.00 83 1020.0
20260906130749 16 349 0.0 0.0 0.00 0.00 0.00 84 1020.1
20260906130244 16 352 0.0 0.0 0.00 0.00 0.00 84 1019.8
20260906125743 16 352 0.0 1.6 0.00 0.00 0.00 85 1020.0
20260906125241 16 350 0.0 0.0 0.00 0.00 0.00 84 1019.9
20260906124741 15 350 0.0 0.0 0.00 0.00 0.00 85 1020.0
20260906124237 15 347 0.0 0.0 0.00 0.00 0.00 85 1019.9
20260906123735 15 348 0.0 0.0 0.00 0.00 0.00 86 1019.9
20260906123231 15 348 0.0 0.0 0.00 0.00 0.00 87 1019.7
20260906122730 15 347 0.0 0.0 0.00 0.00 0.00 87 1019.6
20260906122226 15 348 0.0 0.0 0.00 0.00 0.00 87 1019.8
20260906121722 15 348 0.0 0.0 0.00 0.00 0.00 88 1019.7
20260906121218 15 348 0.0 0.0 0.00 0.00 0.00 88 1019.8
20260906120714 15 349 0.0 0.0 0.00 0.00 0.00 88 1019.7
20260906120211 15 346 0.0 0.0 0.00 0.00 0.00 89 1019.6
20260906115706 15 349 0.0 0.0 0.00 0.00 0.00 88 1019.4
20260906115201 15 348 0.0 0.0 0.00 0.00 0.00 88 1019.5
20260906114700 14 348 0.0 0.0 0.00 0.00 0.00 89 1019.6
20260906114155 14 350 0.0 0.0 0.00 0.00 0.00 89 1019.7
20260906113655 14 347 0.0 0.0 0.00 0.00 0.00 90 1019.4
20260906113155 14 347 0.0 0.0 0.00 0.00 0.00 90 1019.5
20260906112654 14 346 0.0 0.0 0.00 0.00 0.00 90 1019.4
20260906112152 14 345 0.0 0.0 0.00 0.00 0.00 90 1019.1
20260906111651 15 347 0.0 0.0 0.00 0.00 0.00 91 1019.3
20260906111145 15 348 0.0 0.0 0.00 0.00 0.00 92 1019.1
20260906110641 15 347 0.0 0.0 0.00 0.00 0.00 91 1019.2
20260906110137 14 346 0.0 0.0 0.00 0.00 0.00 92 1019.1
20260906105636 15 347 0.0 0.0 0.00 0.00 0.00 91 1019.3
20260906105132 15 347 0.0 0.0 0.00 0.00 0.00 91 1019.1
20260906104631 14 347 0.0 0.0 0.00 0.00 0.00 92 1019.1
20260906104131 15 354 0.0 0.0 0.00 0.00 0.00 91 1019.1
20260906103629 15 42 0.0 0.0 0.00 0.00 0.00 91 1019.0
20260906103125 15 36 1.6 1.6 0.00 0.00 0.00 91 1019.2
20260906102620 15 47 0.0 1.6 0.00 0.00 0.00 91 1018.9
20260906102115 15 49 0.0 1.6 0.00 0.00 0.00 90 1019.2
20260906101615 15 43 0.0 0.0 0.00 0.00 0.00 90 1019.0
20260906101114 15 49 0.0 1.6 0.00 0.00 0.00 90 1019.0
20260906100610 15 40 1.6 1.6 0.00 0.00 0.00 90 1018.9
20260906100110 15 47 0.0 1.6 0.00 0.00 0.00 90 1019.0
20260906095610 15 49 0.0 1.6 0.00 0.00 0.00 89 1018.9
20260906095106 15 49 0.0 1.6 0.00 0.00 0.00 89 1019.2
20260906094604 15 49 0.0 0.0 0.00 0.00 0.00 89 1018.9
20260906094101 15 48 1.6 1.6 0.00 0.00 0.00 89 1018.9
20260906093556 15 46 1.6 3.2 0.00 0.00 0.00 89 1019.1
20260906093051 15 44 0.0 1.6 0.00 0.00 0.00 90 1018.9
20260906092546 15 49 0.0 1.6 0.00 0.00 0.00 89 1018.9
20260906092041 15 48 0.0 0.0 0.00 0.00 0.00 89 1018.8
20260906091537 15 41 0.0 0.0 0.00 0.00 0.00 89 1019.0
20260906091034 15 50 0.0 0.0 0.00 0.00 0.00 90 1018.8
20260906090534 15 51 0.0 0.0 0.00 0.00 0.00 89 1018.8
20260906090034 15 44 1.6 1.6 0.00 0.00 0.00 88 1018.8
20260906085532 16 49 0.0 1.6 0.00 0.00 0.00 88 1018.8
20260906085032 16 46 0.0 3.2 0.00 0.00 0.00 86 1019.0
20260906084527 16 50 0.0 1.6 0.00 0.00 0.00 85 1019.0
20260906084026 17 49 0.0 1.6 0.00 0.00 0.00 82 1018.7
20260906083522 17 55 3.2 4.8 0.00 0.00 0.00 81 1018.8
20260906083021 16 56 1.6 3.2 0.00 0.00 0.00 82 1018.7
20260906082516 17 51 1.6 3.2 0.00 0.00 0.00 82 1018.8
20260906082012 17 52 1.6 3.2 0.00 0.00 0.00 82 1018.9
20260906081508 17 42 3.2 4.8 0.00 0.00 0.00 81 1018.6
20260906081003 17 39 3.2 4.8 0.00 0.00 0.00 81 1018.6
20260906080500 17 46 3.2 4.8 0.00 0.00 0.00 81 1018.5
20260906075955 17 44 4.8 6.4 0.00 0.00 0.00 82 1018.7
20260906075450 17 33 3.2 6.4 0.00 0.00 0.00 83 1018.6
20260906074945 17 60 3.2 6.4 0.00 0.00 0.00 84 1018.5
20260906074444 17 46 4.8 6.4 0.00 0.00 0.00 84 1018.4
20260906073943 16 47 1.6 4.8 0.00 0.00 0.00 84 1018.3
20260906073438 16 41 3.2 4.8 0.00 0.00 0.00 85 1018.3
20260906072934 16 37 1.6 3.2 0.00 0.00 0.00 85 1018.3
20260906072429 16 40 1.6 3.2 0.00 0.00 0.00 84 1018.5
20260906071925 17 41 1.6 3.2 0.00 0.00 0.00 83 1018.4
20260906071421 17 44 0.0 3.2 0.00 0.00 0.00 80 1018.5
20260906070917 17 47 1.6 4.8 0.00 0.00 0.00 79 1018.4
20260906070413 17 48 1.6 4.8 0.00 0.00 0.00 78 1018.4
20260906065908 17 32 3.2 6.4 0.00 0.00 0.00 77 1018.4
20260906065402 17 42 4.8 11.3 0.00 0.00 0.00 77 1018.3
20260906064858 17 32 4.8 9.7 0.00 0.00 0.00 78 1018.2
20260906064355 17 49 1.6 4.8 0.00 0.00 0.00 79 1018.3
20260906063854 17 46 3.2 6.4 0.00 0.00 0.00 78 1018.1
20260906063349 17 53 6.4 9.7 0.00 0.00 0.00 78 1018.0
20260906062844 17 51 3.2 6.4 0.00 0.00 0.00 79 1018.0
20260906062344 17 38 6.4 11.3 0.00 0.00 0.00 79 1018.1
20260906061839 17 48 3.2 6.4 0.00 0.00 0.00 79 1018.0
20260906061336 17 33 6.4 9.7 0.00 0.00 0.00 79 1018.2
20260906060830 17 52 4.8 6.4 0.00 0.00 0.00 80 1018.2
20260906060328 17 34 4.8 9.7 0.00 0.00 0.00 79 1018.1
20260906055824 17 49 3.2 9.7 0.00 0.00 0.00 79 1017.9
20260906055319 17 45 4.8 6.4 0.00 0.00 0.00 79 1018.1
20260906054814 17 52 6.4 9.7 0.00 0.00 0.00 79 1018.0
20260906054309 17 46 6.4 9.7 0.00 0.00 0.00 79 1017.8
20260906053806 18 47 4.8 4.8 0.00 0.00 0.00 79 1017.9
20260906053301 18 55 6.4 9.7 0.00 0.00 0.00 81 1017.9
20260906052756 18 47 4.8 9.7 0.00 0.00 0.00 83 1017.8
20260906052252 18 41 6.4 12.9 0.00 0.00 0.00 82 1017.7
20260906051749 18 52 3.2 6.4 0.00 0.00 0.00 81 1017.8
20260906051249 17 46 3.2 4.8 0.00 0.00 0.00 83 1017.9
20260906050744 17 51 4.8 4.8 0.00 0.00 0.00 84 1018.0
20260906050239 17 52 1.6 3.2 0.00 0.00 0.00 83 1017.8
20260906045738 17 53 1.6 1.6 0.00 0.00 0.00 83 1017.7
20260906045233 17 51 1.6 3.2 0.00 0.00 0.00 82 1017.9
20260906044729 17 53 1.6 3.2 0.00 0.00 0.00 83 1018.0
20260906044224 17 54 1.6 1.6 0.00 0.00 0.00 83 1017.9
20260906043720 18 53 0.0 3.2 0.00 0.00 0.00 83 1017.8
20260906043216 18 52 3.2 3.2 0.00 0.00 0.00 82 1017.6
20260906042715 18 53 0.0 3.2 0.00 0.00 0.00 82 1017.4
20260906042214 18 54 0.0 1.6 0.00 0.00 0.00 82 1017.4
20260906041710 18 52 0.0 4.8 0.00 0.00 0.00 82 1017.6
20260906041205 18 53 0.0 4.8 0.00 0.00 0.00 81 1017.4
20260906040701 18 54 0.0 1.6 0.00 0.00 0.00 81 1017.3
20260906040156 18 54 1.6 1.6 0.00 0.00 0.00 80 1017.4
20260906035651 18 49 3.2 3.2 0.00 0.00 0.00 80 1017.4
20260906035147 18 54 0.0 3.2 0.00 0.00 0.00 80 1017.4
20260906034647 18 54 0.0 3.2 0.00 0.00 0.00 79 1017.3
20260906034142 18 47 0.0 3.2 0.00 0.00 0.00 79 1017.3
20260906033637 18 45 0.0 3.2 0.00 0.00 0.00 79 1017.3
20260906033132 18 51 1.6 3.2 0.00 0.00 0.00 78 1017.2
20260906032629 18 54 0.0 3.2 0.00 0.00 0.00 78 1017.4
20260906032128 18 53 1.6 3.2 0.00 0.00 0.00 78 1017.5
20260906031624 18 50 0.0 1.6 0.00 0.00 0.00 78 1017.4
20260906031120 18 53 1.6 3.2 0.00 0.00 0.00 78 1017.4
20260906030618 18 55 1.6 3.2 0.00 0.00 0.00 77 1017.3
20260906030114 19 54 0.0 1.6 0.00 0.00 0.00 77 1017.5
20260906025613 19 52 0.0 1.6 0.00 0.00 0.00 76 1017.2
20260906025112 19 54 0.0 3.2 0.00 0.00 0.00 76 1017.2
20260906024607 19 50 3.2 4.8 0.00 0.00 0.00 76 1017.3
20260906024107 20 51 1.6 3.2 0.00 0.00 0.00 76 1017.3
20260906023603 20 51 1.6 3.2 0.00 0.00 0.00 77 1017.3
20260906023057 20 56 0.0 3.2 0.00 0.00 0.00 78 1017.2
20260906022553 20 54 0.0 1.6 0.00 0.00 0.00 79 1017.3
20260906022048 20 53 3.2 4.8 0.00 0.00 0.00 81 1017.3
20260906021544 20 50 1.6 3.2 0.00 0.00 0.00 84 1017.2
20260906021043 20 55 0.0 3.2 0.00 0.00 0.00 85 1017.1
20260906020542 20 48 1.6 3.2 0.00 0.00 0.00 86 1017.2
20260906020037 20 51 1.6 3.2 0.00 0.00 0.00 85 1017.0
20260906015536 20 49 1.6 3.2 0.00 0.00 0.00 83 1017.1
20260906015035 20 47 1.6 3.2 0.00 0.00 0.00 81 1017.0
20260906014530 20 43 1.6 3.2 0.00 0.00 0.00 79 1017.1
20260906014026 21 54 0.0 3.2 0.00 0.00 0.00 77 1017.3
20260906013521 21 52 0.0 0.0 0.00 0.00 0.00 78 1017.1
20260906013017 21 51 0.0 1.6 0.00 0.00 0.00 78 1016.9
20260906012512 21 34 1.6 3.2 0.00 0.00 0.00 78 1016.9
20260906012012 21 46 0.0 0.0 0.00 0.00 0.00 78 1016.8
20260906011508 21 55 0.0 0.0 0.00 0.00 0.00 75 1016.8
20260906011008 21 46 0.0 0.0 0.00 0.00 0.00 73 1016.9
20260906010503 21 48 0.0 0.0 0.00 0.00 0.00 71 1016.8
20260906005959 21 55 0.0 0.0 0.00 0.00 0.00 69 1016.9
20260906005458 21 44 0.0 0.0 0.00 0.00 0.00 68 1016.7
20260906004957 21 43 0.0 0.0 0.00 0.00 0.00 68 1016.6
20260906004457 21 55 0.0 0.0 0.00 0.00 0.00 68 1016.9
20260906003952 21 54 0.0 0.0 0.00 0.00 0.00 67 1016.7
20260906003447 21 59 0.0 0.0 0.00 0.00 0.00 70 1016.6
20260906002942 21 60 0.0 0.0 0.00 0.00 0.00 70 1016.6
20260906002442 21 61 0.0 0.0 0.00 0.00 0.00 69 1016.7
20260906001937 21 60 0.0 0.0 0.00 0.00 0.00 69 1016.5
20260906001434 21 36 1.6 3.2 0.00 0.00 0.00 69 1016.5
20260906000928 22 15 1.6 4.8 0.00 0.00 0.00 69 1016.7
20260906000425 22 53 0.0 0.0 0.00 0.00 0.00 69 1016.6
20260905235919 22 74 0.0 0.0 0.00 0.00 0.00 65 1016.5
20260905235418 22 64 0.0 0.0 0.00 0.00 0.00 67 1016.5
20260905234913 23 75 1.6 1.6 0.00 0.00 0.00 66 1016.4
20260905234409 23 59 0.0 1.6 0.00 0.00 0.00 65 1016.6
20260905233903 23 70 0.0 1.6 0.00 0.00 0.00 63 1016.6
20260905233358 23 96 1.6 1.6 0.00 0.00 0.00 62 1016.6
20260905232858 23 56 3.2 4.8 0.00 0.00 0.00 60 1016.6
20260905232354 23 82 3.2 4.8 0.00 0.00 0.00 59 1016.7
20260905231849 23 57 0.0 1.6 0.00 0.00 0.00 62 1016.5
20260905231344 23 123 1.6 4.8 0.00 0.00 0.00 61 1016.4
20260905230841 24 83 3.2 4.8 0.00 0.00 0.00 60 1016.6
20260905230338 24 75 1.6 4.8 0.00 0.00 0.00 61 1016.5
20260905225838 23 70 3.2 4.8 0.00 0.00 0.00 60 1016.6
20260905225333 24 141 3.2 4.8 0.00 0.00 0.00 59 1016.7
20260905224828 25 188 4.8 4.8 0.00 0.00 0.00 57 1016.6
20260905224324 24 55 1.6 3.2 0.00 0.00 0.00 59 1016.5
20260905223824 24 85 3.2 3.2 0.00 0.00 0.00 59 1016.6
20260905223322 24 197 3.2 6.4 0.00 0.00 0.00 57 1016.5
20260905222816 25 189 3.2 6.4 0.00 0.00 0.00 58 1016.4
20260905222315 25 111 0.0 3.2 0.00 0.00 0.00 56 1016.5
20260905221811 25 120 3.2 4.8 0.00 0.00 0.00 58 1016.7
20260905221308 25 74 3.2 6.4 0.00 0.00 0.00 58 1016.7
20260905220803 24 75 1.6 9.7 0.00 0.00 0.00 59 1016.7
20260905220300 25 78 3.2 6.4 0.00 0.00 0.00 59 1016.5
20260905215758 25 67 3.2 6.4 0.00 0.00 0.00 59 1016.5
20260905215255 25 86 1.6 4.8 0.00 0.00 0.00 59 1016.4
20260905214750 25 84 3.2 3.2 0.00 0.00 0.00 61 1016.4
20260905214246 24 133 3.2 11.3 0.00 0.00 0.00 62 1016.5
20260905213741 25 188 6.4 12.9 0.00 0.00 0.00 62 1016.4
20260905213237 24 78 1.6 9.7 0.00 0.00 0.00 63 1016.3
20260905212732 24 58 6.4 9.7 0.00 0.00 0.00 63 1016.2
20260905212231 24 100 8.0 11.3 0.00 0.00 0.00 60 1016.2
20260905211731 25 181 6.4 11.3 0.00 0.00 0.00 60 1016.2
20260905211226 25 61 1.6 9.7 0.00 0.00 0.00 60 1016.2
20260905210723 25 200 6.4 9.7 0.00 0.00 0.00 58 1016.0
20260905210223 25 151 4.8 11.3 0.00 0.00 0.00 60 1016.1
20260905205721 25 178 6.4 9.7 0.00 0.00 0.00 58 1016.0
20260905205216 25 173 4.8 9.7 0.00 0.00 0.00 56 1016.2
20260905204710 26 50 3.2 6.4 0.00 0.00 0.00 57 1016.2
20260905204206 25 186 3.2 9.7 0.00 0.00 0.00 56 1016.4
20260905203706 26 148 3.2 9.7 0.00 0.00 0.00 57 1016.2
20260905203201 25 271 3.2 9.7 0.00 0.00 0.00 57 1016.2
20260905202657 25 48 1.6 6.4 0.00 0.00 0.00 58 1016.2
20260905202152 25 196 8.0 14.5 0.00 0.00 0.00 56 1016.2
20260905201647 25 144 8.0 11.3 0.00 0.00 0.00 59 1016.3
20260905201147 25 186 6.4 6.4 0.00 0.00 0.00 57 1016.4
20260905200642 25 139 4.8 11.3 0.00 0.00 0.00 59 1016.4
20260905200138 25 121 4.8 11.3 0.00 0.00 0.00 57 1016.4
20260905195636 25 190 6.4 9.7 0.00 0.00 0.00 56 1016.5
20260905195131 25 218 4.8 6.4 0.00 0.00 0.00 57 1016.2
20260905194626 25 144 4.8 11.3 0.00 0.00 0.00 59 1016.5
20260905194125 25 152 1.6 12.9 0.00 0.00 0.00 58 1016.4
20260905193621 25 147 3.2 9.7 0.00 0.00 0.00 58 1016.6
20260905193115 26 158 1.6 9.7 0.00 0.00 0.00 57 1016.4
20260905192611 26 185 3.2 6.4 0.00 0.00 0.00 56 1016.7
20260905192107 25 82 1.6 6.4 0.00 0.00 0.00 57 1016.7